Theta_e
351 349 351 351 351 350 363 357 356 360 355 355 357 354 352 348 339 337 336 339 341 347 341 350 357 361 362 359 362 365 362 359 351 353 360 364 358 354 352 355 353 352 351 352 353 354 355 353 352 352 349 347 344 343 342 341 340 340 338 337 337 337 336 333 333 333 333 333 333 334 334 335 336 337
352 354 350 351 350 351 350 349 353 365 356 353 355 354 357 350 340 342 337 337 345 344 346 352 352 358 364 364 363 365 364 360 353 354 361 364 362 351 350 353 352 351 351 351 350 353 354 354 352 351 348 345 341 340 340 341 339 339 336 335 335 335 334 331 331 332 332 333 333 333 334 335 335 335
353 350 351 351 347 349 349 349 348 356 354 354 354 351 361 353 351 350 348 338 345 353 346 350 354 354 357 361 354 360 364 357 354 356 357 363 360 355 352 352 351 350 349 348 347 347 349 348 347 345 343 343 343 342 340 339 338 337 335 334 332 332 332 330 330 331 331 332 332 332 332 333 334 334
355 351 349 353 353 355 356 355 356 356 357 354 352 351 355 360 358 353 346 341 343 352 353 352 353 352 352 356 357 357 362 361 358 360 358 361 362 361 356 352 350 348 347 346 344 343 343 342 343 343 342 343 343 342 340 338 337 336 334 331 329 330 329 328 329 330 330 330 330 331 331 331 332 332
353 354 351 349 354 357 353 354 355 355 356 356 353 355 355 353 352 347 344 340 343 347 356 356 354 356 356 352 356 350 355 363 361 358 359 362 363 359 358 357 351 347 344 342 341 340 340 339 340 340 342 344 344 344 342 340 337 335 331 329 326 327 327 327 328 329 329 328 329 329 329 330 330 331
362 359 351 350 352 355 353 353 352 351 350 352 350 350 350 348 352 351 347 344 342 342 348 349 354 354 357 350 359 359 358 353 360 359 358 360 358 361 360 358 356 349 345 340 338 338 338 337 337 338 340 342 343 343 342 340 337 334 331 326 326 326 325 325 327 328 327 327 327 327 327 328 329 330
358 357 357 355 355 359 352 351 350 351 349 351 350 348 349 348 348 351 352 347 345 345 345 349 351 351 359 358 356 359 360 359 359 356 356 358 359 362 362 363 361 349 344 341 338 337 337 337 336 335 337 340 341 341 338 334 332 330 328 324 326 325 324 324 325 326 325 325 325 325 325 326 328 329
358 356 355 357 355 353 351 350 349 349 349 348 349 353 352 348 348 347 352 352 347 347 347 348 350 354 353 354 357 361 360 358 358 359 359 360 357 356 359 363 363 355 344 343 340 338 336 336 335 333 334 336 335 334 333 330 329 327 326 325 324 323 323 323 322 324 323 322 322 322 323 326 327 327
357 357 356 357 356 355 352 353 351 349 348 348 348 348 350 352 350 350 355 353 353 350 349 350 353 355 354 357 359 360 358 358 357 358 357 360 358 355 358 359 361 353 342 343 341 338 337 336 334 333 332 333 333 332 331 329 328 327 326 324 324 324 323 323 321 322 321 321 321 320 321 324 325 326
359 358 357 356 356 355 354 353 353 352 350 350 349 348 348 350 353 354 353 355 355 351 350 351 351 351 355 354 354 356 358 356 357 356 357 357 357 357 357 361 362 357 351 349 347 339 337 336 332 333 333 332 331 331 330 328 327 325 323 320 319 322 322 321 321 321 320 320 320 320 321 323 324 325
358 358 357 356 356 355 355 354 353 353 352 352 351 352 351 351 353 352 349 349 349 350 349 350 353 353 354 355 353 356 358 361 359 355 352 352 358 360 357 357 359 358 352 349 346 346 345 342 338 329 328 329 330 331 329 328 326 324 321 318 317 319 319 319 320 321 319 319 319 318 317 318 321 324
356 356 356 356 356 356 356 355 354 354 355 356 354 355 354 353 351 351 352 350 349 348 349 348 348 349 351 352 356 358 357 353 348 353 356 352 350 349 356 359 357 358 353 350 350 347 344 341 337 330 329 330 331 331 330 331 330 328 324 321 322 322 320 319 320 319 318 316 315 316 316 316 319 322
354 355 355 355 355 358 366 364 361 360 360 356 354 353 354 354 352 350 349 351 352 351 351 350 351 350 350 352 352 352 350 347 347 348 349 350 351 352 355 357 359 359 355 357 357 355 350 346 343 341 335 333 333 332 332 332 334 331 325 323 324 324 323 320 319 320 318 317 316 315 315 316 318 320
352 353 352 354 365 362 364 360 357 352 356 360 358 354 353 353 354 353 351 349 349 349 347 349 350 350 351 352 352 351 350 350 351 351 352 352 355 352 352 351 355 360 356 352 351 352 355 348 346 343 340 339 340 335 333 331 332 331 328 325 324 324 324 321 320 319 318 316 316 315 314 315 317 317
348 348 349 349 358 365 363 358 350 348 346 350 354 355 362 364 356 353 353 352 352 351 350 350 351 350 350 351 352 350 350 350 350 350 351 351 350 348 345 344 347 356 355 350 345 350 354 351 349 349 346 347 342 337 335 334 333 329 328 326 324 324 323 323 322 321 318 317 316 316 315 316 316 317
349 348 347 347 348 348 349 353 355 351 347 343 345 347 350 355 361 361 360 356 354 353 352 352 352 352 351 351 350 350 350 349 348 350 354 355 350 347 345 342 344 349 361 350 348 348 351 360 359 358 357 353 350 345 336 333 332 329 328 327 325 324 323 323 323 324 321 320 319 320 318 317 317 317
348 347 347 346 346 347 360 362 354 352 352 344 340 341 344 346 346 342 345 353 360 358 356 355 354 353 353 352 352 354 352 353 351 350 350 349 347 347 345 343 343 348 354 352 350 349 354 355 354 356 359 359 358 354 339 333 332 330 328 327 325 324 324 323 323 323 321 320 318 317 316 314 314 316
348 348 347 346 346 345 346 345 350 354 352 351 349 346 346 347 351 348 338 338 344 353 356 355 355 358 359 357 355 358 357 355 353 350 349 350 349 351 351 352 352 354 362 356 349 348 353 354 354 352 355 358 349 349 340 330 329 329 327 325 324 323 323 322 322 322 321 320 318 316 313 312 312 315
347 348 348 348 347 346 345 345 347 349 353 353 351 349 348 347 348 349 351 349 347 346 349 349 351 352 355 359 361 362 362 361 360 359 357 355 355 355 355 355 357 359 361 358 352 350 353 352 350 352 354 355 340 335 329 327 328 328 325 323 323 323 322 322 322 321 320 319 317 315 313 312 312 314
346 346 347 347 347 346 346 351 345 351 351 354 353 351 351 350 350 350 352 343 346 353 350 349 349 349 350 344 353 356 358 358 356 356 356 356 356 355 353 351 353 353 357 358 354 350 350 354 352 352 355 350 341 331 330 326 327 326 323 323 322 321 320 320 321 321 320 319 318 316 312 309 310 311
345 346 345 345 346 346 346 346 334 334 348 350 355 354 354 354 354 353 355 342 334 335 334 333 334 334 334 333 331 331 334 347 350 349 345 344 346 345 344 346 349 351 356 356 358 354 350 353 351 351 353 345 341 330 327 326 325 323 321 321 321 320 319 318 318 319 319 319 317 316 315 309 309 312
345 346 357 359 347 346 346 338 331 331 340 343 347 354 356 356 356 357 360 361 354 332 329 330 331 331 332 331 331 331 330 331 339 345 343 345 344 342 345 345 348 350 349 351 356 348 350 353 351 350 352 349 342 336 328 325 324 322 318 318 319 319 318 318 318 319 319 319 317 315 313 309 310 315
348 346 352 357 353 349 345 332 328 328 338 344 343 343 348 351 353 357 361 362 362 359 351 348 345 343 340 342 341 343 335 334 344 343 344 345 343 340 341 342 342 341 342 347 351 345 343 344 348 350 346 342 346 339 332 326 323 322 323 321 320 318 318 318 317 316 317 318 317 316 313 310 311 319
349 349 349 349 336 328 327 326 323 322 322 343 346 345 344 343 342 347 348 352 354 353 355 353 351 350 350 349 348 347 346 345 347 342 343 345 345 343 343 343 342 340 341 344 350 344 342 344 342 352 350 343 341 339 330 325 323 321 321 321 320 320 320 320 317 315 314 315 315 314 312 309 313 326
350 350 351 352 342 329 325 322 320 318 318 324 342 346 346 346 346 348 346 348 358 350 349 350 351 351 352 351 350 349 348 348 348 347 343 346 346 346 344 343 343 343 345 348 345 344 341 344 344 345 347 346 342 338 334 329 326 322 322 321 319 320 320 320 320 320 315 312 310 308 306 307 310 326
351 352 352 353 345 331 326 323 320 318 318 319 333 342 329 329 329 342 349 348 348 348 348 348 348 348 349 353 354 353 353 352 352 351 350 348 348 349 348 347 344 343 344 350 340 346 344 341 341 340 340 341 343 341 335 332 331 326 323 323 321 320 320 320 322 321 320 320 320 315 315 312 312 318
353 354 355 356 352 332 325 321 319 318 317 320 326 320 320 321 322 333 342 346 348 347 348 348 347 346 347 346 347 352 355 356 356 355 354 354 352 351 351 352 351 350 351 351 351 347 345 342 344 343 342 343 341 340 339 338 338 329 324 324 325 324 323 321 322 323 322 322 322 316 312 311 309 315
350 352 355 345 317 313 309 310 312 314 317 329 319 315 316 318 323 333 338 340 345 347 346 347 347 347 348 348 348 348 349 354 358 359 359 358 357 356 355 354 352 353 353 353 352 349 348 345 345 348 347 344 342 341 341 341 338 329 328 328 327 328 327 323 322 327 328 324 324 324 322 322 319 317
340 334 324 318 315 315 311 311 314 319 318 311 310 311 313 321 331 335 338 341 344 344 345 346 348 349 349 350 350 351 350 352 354 354 355 357 358 359 359 358 356 355 355 355 353 351 350 351 350 351 352 350 347 346 345 345 343 336 334 332 329 332 333 328 325 326 328 325 325 325 324 325 324 326
321 317 315 315 316 319 323 332 336 339 340 329 323 319 320 328 332 335 338 341 342 344 345 346 347 348 350 351 352 352 352 351 350 350 350 350 351 353 352 352 354 356 357 356 355 353 351 351 353 353 353 354 352 351 349 347 345 342 338 337 335 334 336 333 329 329 332 327 326 327 326 327 327 327
328 329 327 328 324 324 325 326 328 330 334 337 339 340 338 336 336 336 338 341 343 344 346 346 348 350 351 352 351 350 349 349 350 351 348 348 348 348 348 347 348 351 355 357 356 354 352 352 353 355 353 353 353 354 354 351 349 348 341 338 335 332 332 334 331 331 332 331 330 329 328 329 330 336
339 341 335 332 336 339 339 339 339 340 340 339 338 341 343 342 340 341 342 343 343 345 347 349 350 349 350 350 350 350 349 349 350 350 348 347 347 347 346 344 343 345 346 352 357 357 357 353 352 354 357 355 352 353 354 352 352 351 350 341 336 336 334 332 330 330 332 332 330 329 328 329 330 331
336 340 341 341 341 341 340 340 341 342 342 342 343 344 344 345 344 342 340 340 341 343 344 345 348 348 350 350 350 349 349 349 349 349 349 349 348 348 347 345 344 344 343 344 348 354 357 356 354 353 353 355 356 354 351 349 351 353 352 349 339 335 334 332 331 328 329 330 329 329 329 330 331 332
327 334 337 340 341 341 341 340 340 340 341 341 342 344 338 344 346 345 343 342 343 344 344 345 346 347 348 348 349 349 348 349 349 347 342 348 348 347 347 346 346 347 345 345 346 347 353 356 356 355 355 354 356 356 354 351 350 352 352 352 346 341 338 332 330 329 328 329 328 326 327 328 330 331
329 332 334 336 339 340 341 340 340 340 340 340 341 342 343 346 346 343 345 345 343 342 344 344 346 346 346 346 348 347 347 347 348 348 346 346 347 347 346 346 346 347 347 347 348 348 350 352 353 353 354 354 354 357 355 358 353 352 352 350 350 349 343 331 329 328 328 327 326 324 325 326 328 330
325 329 332 335 338 340 340 341 341 341 341 341 342 342 342 344 346 347 348 348 348 347 346 346 344 346 346 347 346 346 345 342 345 346 346 347 346 346 346 346 346 347 348 349 349 350 349 351 352 351 349 349 349 348 351 350 352 357 352 351 350 349 347 334 329 328 327 326 326 325 323 323 325 329
325 329 332 334 338 340 341 342 342 342 343 342 343 343 343 344 345 346 347 341 346 345 347 347 347 346 346 345 344 341 342 342 344 344 344 346 346 346 345 345 344 346 347 349 351 352 352 351 351 351 349 347 346 345 349 352 343 343 359 354 352 351 348 335 329 326 327 327 326 326 325 325 325 327
328 331 333 335 337 340 341 343 344 343 344 344 344 344 345 345 346 347 348 347 346 344 344 344 343 343 345 344 345 345 345 345 345 345 343 345 344 345 345 345 346 346 347 348 350 351 352 349 347 347 343 338 343 345 346 346 346 347 338 355 355 353 346 336 329 328 327 327 326 327 327 325 326 327
325 329 332 335 337 340 341 343 344 345 346 346 346 345 345 346 347 347 346 345 346 346 346 345 344 343 343 345 344 345 344 344 344 345 345 345 345 345 344 343 342 342 343 342 344 348 347 345 345 344 342 340 342 347 349 345 344 352 345 330 352 354 345 341 337 333 330 327 325 327 328 327 325 325
331 331 333 335 337 340 342 345 346 348 347 347 347 348 347 345 346 346 346 345 344 345 346 345 344 341 344 345 344 346 346 346 346 346 344 343 341 341 340 340 341 341 341 341 341 343 345 346 346 348 348 349 349 344 343 342 344 348 350 340 325 347 354 344 341 337 332 330 328 325 324 325 327 324
332 332 334 336 337 339 340 343 345 347 348 349 349 343 348 349 349 348 348 347 345 346 346 346 346 345 345 346 346 347 345 344 345 345 344 343 339 337 337 333 338 339 339 339 340 341 342 346 350 340 348 343 345 345 342 340 340 345 347 348 327 324 332 338 348 342 338 333 328 326 324 324 325 323
325 326 327 328 328 328 328 329 332 336 339 342 346 349 351 350 349 341 345 344 346 347 348 347 347 347 348 348 347 343 344 343 343 341 339 340 341 338 334 335 338 339 339 339 341 343 346 348 349 345 344 343 340 338 336 336 337 341 347 349 348 332 325 324 329 334 345 336 329 325 324 322 323 322
318 318 319 322 323 324 324 326 328 329 331 333 336 338 341 344 347 347 347 347 347 346 347 348 349 349 349 349 349 346 342 340 340 341 340 339 339 339 338 339 339 340 340 341 344 345 347 347 347 344 341 340 341 340 336 338 340 343 345 347 348 346 345 330 324 322 324 326 325 330 331 328 323 320
313 313 314 316 317 317 319 322 324 326 326 326 328 331 334 336 338 341 344 345 346 346 348 349 349 347 346 345 344 342 341 341 341 341 340 339 338 340 340 340 339 340 342 342 343 344 345 345 344 344 341 340 340 339 338 338 339 341 344 346 346 344 343 343 341 331 325 322 320 320 323 325 327 328
310 310 310 312 312 313 315 317 319 320 320 321 323 325 328 332 333 333 335 335 340 338 336 340 345 343 341 341 343 343 343 335 337 340 340 340 340 340 340 341 341 342 342 344 343 343 344 343 343 344 342 341 341 340 338 337 338 339 341 343 344 345 346 340 337 337 338 339 330 320 319 321 324 323
Wind_Speed
4 4 3 1 2 3 1 2 1 1 2 2 3 3 5 3 2 2 3 2 1 3 2 0 1 4 3 5 4 4 3 5 5 4 4 5 4 8 11 10 10 9 8 7 7 6 6 6 6 6 6 4 3 3 4 6 6 7 7 9 9 9 9 10 11 12 12 12 12 12 12 12 11 11
3 3 2 3 3 3 2 3 0 1 2 2 2 3 1 4 1 1 1 3 2 2 4 1 1 3 5 3 4 3 4 6 7 4 4 5 6 10 12 11 11 10 9 8 8 7 7 8 8 8 6 5 4 3 4 5 6 6 6 8 8 8 8 9 10 11 11 11 12 12 12 12 11 12
3 4 3 3 4 3 4 3 3 0 1 0 1 1 1 1 2 3 2 1 4 1 3 3 1 1 4 4 3 3 4 5 7 4 3 5 8 11 10 12 11 11 10 9 9 9 9 9 9 8 7 6 6 6 5 4 4 4 5 6 7 7 7 8 9 10 10 11 11 12 12 12 12 12
3 4 4 3 3 3 1 0 1 1 3 2 2 1 0 2 3 4 1 1 6 3 1 4 5 3 3 2 2 0 3 4 6 3 4 3 7 6 4 9 12 11 11 10 10 10 10 10 10 9 8 7 7 7 5 5 4 3 3 4 5 5 6 6 8 9 9 10 10 11 12 12 11 11
4 4 4 5 3 1 0 2 2 1 3 2 4 2 0 2 1 2 2 2 5 5 1 1 3 5 3 3 2 4 2 1 3 4 4 4 3 4 5 6 10 12 11 11 10 10 10 10 10 10 10 8 9 8 7 6 6 4 1 2 2 3 4 5 6 8 9 9 10 11 11 11 11 11
3 3 5 5 4 3 2 1 2 3 1 3 3 3 5 4 5 3 3 4 3 5 4 4 4 4 2 3 3 2 3 3 3 3 4 5 3 5 5 5 6 12 12 12 11 11 11 11 11 11 11 10 9 9 8 7 6 4 2 0 2 1 2 3 5 7 8 9 10 10 11 10 10 10
5 3 3 4 4 3 3 3 4 3 4 1 2 4 3 4 5 4 5 4 4 5 5 2 3 2 3 2 3 4 3 3 4 4 6 5 5 3 4 5 5 10 13 13 12 12 12 11 11 11 11 11 10 10 9 8 7 5 3 3 2 1 0 2 4 5 7 9 9 10 10 9 9 10
4 4 4 3 4 3 3 4 4 5 5 5 3 3 4 4 5 5 4 5 5 5 4 3 3 2 3 4 4 4 4 5 6 4 5 4 3 4 3 5 5 7 13 14 14 13 12 12 12 12 11 11 11 11 10 9 7 7 5 4 3 2 1 1 2 4 6 7 8 9 9 9 8 10
5 5 5 5 4 3 4 4 4 5 5 6 5 4 3 4 5 5 4 6 5 4 4 4 3 3 2 2 4 3 5 6 5 5 4 3 4 4 4 5 5 7 12 14 14 13 13 13 13 12 12 12 12 12 11 10 9 8 6 5 4 3 3 1 1 3 4 6 7 7 8 9 9 9
6 6 6 6 6 5 5 5 5 5 7 6 5 5 5 4 3 4 4 4 4 4 5 4 5 2 3 3 3 3 5 6 7 6 6 4 4 4 5 5 2 2 3 4 6 8 10 12 14 13 12 12 13 13 12 11 11 10 8 7 5 4 3 2 2 2 2 4 6 6 7 9 9 9
7 7 7 7 7 7 7 6 6 5 6 6 6 6 5 4 3 3 3 3 4 4 4 4 4 5 3 3 5 5 5 4 5 7 6 6 6 4 4 6 6 2 4 6 8 9 10 12 10 12 13 13 14 14 13 12 12 11 10 8 6 5 5 4 4 3 3 2 4 5 6 7 9 9
6 6 7 7 7 8 8 8 7 7 6 5 6 6 4 4 4 4 3 2 3 4 4 5 6 4 5 3 4 4 4 4 4 4 5 6 7 7 3 4 6 4 3 4 5 7 9 8 9 10 11 13 14 14 13 14 13 13 10 8 7 6 6 6 5 5 4 2 3 4 6 6 8 9
7 7 7 8 8 8 11 13 11 10 9 6 7 6 5 5 5 5 5 5 5 4 4 5 3 4 5 5 5 6 5 5 6 6 2 4 7 7 6 6 5 6 6 4 4 5 6 6 6 6 6 8 11 12 13 10 13 14 12 10 8 7 7 7 6 6 4 4 4 4 5 6 6 8
8 9 8 8 12 15 15 15 16 15 15 13 10 8 7 8 7 6 6 6 6 6 6 6 5 5 6 6 5 5 5 4 5 6 6 6 7 4 5 5 5 5 3 3 6 6 3 5 6 5 7 6 8 7 8 10 10 12 14 12 10 9 8 8 7 7 6 5 4 3 3 4 5 6
8 8 8 8 10 10 11 13 17 16 16 16 16 15 13 11 9 7 8 7 7 7 7 6 6 6 7 7 5 5 6 4 6 6 5 6 4 4 5 6 6 3 3 4 3 7 3 5 6 6 7 7 6 7 10 15 15 14 14 13 10 10 9 8 9 8 7 6 5 3 2 3 4 5
8 7 7 6 6 7 9 8 11 15 18 18 17 16 14 14 14 12 9 8 6 6 6 6 7 6 7 7 5 6 4 6 6 6 4 4 4 4 4 3 4 4 2 3 4 8 5 3 6 6 6 7 7 9 13 15 16 15 15 14 11 10 9 10 10 10 7 6 4 3 1 2 2 4
9 8 8 8 7 7 10 9 7 7 10 14 18 18 18 16 14 13 13 11 9 6 7 7 7 8 7 7 8 6 4 3 5 5 6 4 3 3 4 5 5 7 3 3 4 8 7 2 3 6 7 6 6 8 11 14 15 16 16 14 13 11 11 11 11 10 9 6 5 3 2 1 1 3
10 10 9 8 8 9 9 8 6 6 8 8 8 9 8 8 12 14 14 14 13 10 8 7 9 9 6 9 8 7 5 5 6 5 6 5 6 6 7 6 6 6 2 5 3 5 8 4 5 7 9 7 4 6 8 14 16 17 16 14 14 13 12 12 12 11 9 7 5 4 4 2 1 2
9 9 10 9 10 9 9 9 10 7 7 7 8 9 10 10 10 9 10 9 9 9 8 9 11 11 9 10 10 8 6 6 6 6 6 5 4 6 5 4 5 7 4 4 2 8 9 4 4 8 8 5 3 1 3 13 16 17 16 15 14 13 13 12 12 11 10 7 5 5 4 4 3 1
9 8 9 9 10 10 9 12 16 14 9 8 9 9 10 10 9 10 12 15 13 12 11 11 11 11 12 14 13 12 10 9 7 6 3 2 3 6 8 10 7 7 5 5 5 5 7 6 6 7 5 3 6 1 2 8 15 17 17 15 14 14 13 13 12 11 10 7 6 6 6 6 6 6
9 9 9 9 9 9 10 13 16 17 13 7 9 9 10 10 9 10 10 14 17 17 17 17 17 18 18 18 19 18 18 13 10 5 5 9 9 8 9 10 9 10 6 4 7 6 8 8 5 7 4 6 5 5 5 5 10 14 14 14 14 13 13 13 12 11 10 8 7 6 7 8 9 7
9 10 14 11 9 9 9 12 15 16 12 8 9 9 9 10 11 10 9 8 10 18 20 20 21 20 19 18 18 16 15 16 10 7 11 12 7 8 8 10 9 8 5 7 5 3 8 7 3 5 4 3 3 5 4 5 6 8 8 11 12 12 13 13 12 11 10 8 7 7 7 9 8 5
8 9 11 16 13 9 10 13 13 15 12 9 10 10 9 10 12 12 9 10 10 8 8 10 11 11 14 14 12 13 18 18 13 10 12 10 8 10 9 9 7 8 9 9 7 6 7 6 5 4 2 3 2 1 4 5 5 6 5 6 7 11 12 12 11 11 10 8 7 7 7 6 9 4
8 9 9 10 14 15 15 14 13 13 14 11 10 8 9 11 15 12 9 9 10 9 9 8 9 10 9 9 8 9 10 11 10 12 11 11 10 9 10 9 8 9 7 4 8 6 4 4 6 4 7 6 5 1 2 4 6 6 6 6 7 10 10 9 8 11 10 8 8 7 6 6 9 5
9 9 9 9 13 16 17 16 17 16 15 13 10 10 11 14 16 10 7 10 14 9 8 9 8 8 7 7 7 7 8 9 8 9 11 11 11 11 11 10 10 11 11 11 6 4 6 4 5 2 4 3 4 1 2 3 4 7 8 8 8 6 7 7 5 6 7 10 10 8 6 5 10 8
8 9 9 9 12 17 17 17 18 18 17 17 10 13 17 17 15 12 9 7 6 7 7 7 8 7 6 6 7 8 8 8 9 9 10 11 12 11 12 12 11 10 12 14 12 8 8 7 9 9 6 4 7 4 1 3 5 7 6 7 7 7 8 7 6 6 6 5 5 7 7 8 5 11
8 7 8 10 16 18 19 19 18 17 17 11 11 18 18 16 14 10 7 7 7 7 8 9 10 9 8 8 8 7 7 7 8 9 10 11 11 12 12 12 13 13 13 12 7 7 8 8 6 8 9 7 8 4 4 5 3 3 5 7 8 7 7 7 8 8 7 7 7 8 6 3 6 6
9 9 7 4 10 9 10 10 10 10 9 9 14 13 15 15 12 8 8 7 8 8 9 10 11 11 10 9 8 8 6 7 7 9 10 11 12 11 11 13 14 13 13 12 10 7 8 9 8 7 9 8 8 9 9 5 2 7 8 7 6 7 7 8 8 6 6 6 6 6 4 5 5 5
10 11 14 14 11 6 8 9 8 6 7 9 10 11 10 8 4 6 6 7 7 10 11 11 12 11 10 9 10 7 6 6 5 5 5 5 6 7 9 10 11 12 11 10 10 9 10 10 11 9 7 6 8 8 7 9 5 6 6 6 4 9 10 9 9 9 8 7 8 7 8 8 7 6
13 15 15 16 16 15 13 9 6 5 6 8 11 11 8 5 6 5 6 7 8 10 11 11 12 11 9 9 9 8 7 7 9 8 9 9 9 7 6 6 7 8 9 10 10 10 10 10 10 10 9 8 9 10 9 8 7 6 6 9 7 2 7 8 9 9 8 9 9 9 8 7 7 7
9 12 12 10 11 10 12 12 12 11 10 9 9 8 7 7 7 7 7 9 10 11 11 11 11 11 11 9 8 8 7 9 9 8 8 7 9 8 8 8 11 9 7 8 9 10 10 10 10 9 10 10 9 10 10 8 9 7 7 8 7 8 7 10 9 10 10 8 7 7 6 6 7 8
7 8 7 9 7 7 7 7 6 6 6 7 7 9 9 9 9 10 12 11 10 11 10 11 10 10 9 10 10 8 8 9 9 6 7 8 9 8 7 8 11 10 10 7 7 8 10 10 10 9 11 11 11 9 7 7 9 10 10 8 9 8 5 11 10 10 10 8 7 8 8 9 9 8
9 8 7 7 8 7 7 7 7 6 5 5 6 8 9 10 10 9 8 10 12 11 10 11 11 11 9 9 8 8 8 9 8 4 7 8 9 7 6 10 11 10 10 10 7 7 6 8 10 12 11 11 12 11 8 8 10 10 11 8 7 8 7 7 9 9 7 8 10 9 8 9 9 9
7 8 9 9 9 9 8 8 7 7 6 6 5 5 8 9 10 10 10 10 11 10 10 11 10 11 9 10 9 8 9 8 6 6 7 9 6 8 8 9 10 8 9 10 9 8 6 7 7 8 9 9 8 10 11 12 12 10 10 8 7 9 9 8 8 9 12 13 12 9 9 9 9 9
4 7 8 9 9 9 9 9 9 8 7 7 5 6 6 7 9 9 10 10 9 9 10 10 10 10 10 10 9 9 9 8 6 5 5 6 7 9 9 9 10 8 8 10 9 6 6 7 6 7 7 7 8 9 11 13 11 12 7 7 8 9 8 8 8 8 10 8 7 11 10 8 9 9
5 5 7 9 9 9 9 10 9 8 8 8 7 6 6 7 7 8 9 9 9 9 9 10 9 9 9 9 8 8 8 6 6 6 6 6 7 8 8 9 9 8 8 10 10 7 6 8 7 9 11 9 9 12 13 14 16 10 10 9 8 9 7 6 7 8 9 10 10 10 11 13 12 10
6 6 8 9 8 8 9 10 9 8 8 8 8 7 7 8 8 9 10 8 7 7 7 6 6 6 7 8 8 7 7 6 7 6 7 7 7 8 8 8 8 7 8 10 9 9 7 9 9 10 11 11 12 15 15 3 13 16 11 11 10 8 8 5 6 8 10 12 11 11 13 12 11 10
5 6 8 9 10 9 9 10 10 10 9 9 9 9 10 10 9 10 9 8 9 9 9 9 9 8 7 6 6 6 6 7 8 8 8 8 8 9 10 11 9 7 7 8 9 9 7 7 8 8 5 9 14 14 14 3 2 8 15 14 12 10 7 7 8 10 11 10 12 13 10 10 12 10
5 6 7 9 9 9 10 10 9 10 10 9 10 10 10 10 10 10 10 10 10 10 9 9 9 9 9 9 9 8 7 7 8 8 8 9 10 11 10 8 8 7 6 10 11 9 9 11 13 11 11 13 16 14 9 8 8 7 11 21 14 9 8 10 12 11 10 10 11 8 8 4 3 2
6 6 7 9 9 9 9 9 9 9 9 9 10 10 10 11 10 11 10 10 10 10 10 9 9 7 8 8 9 9 10 10 9 7 6 8 8 5 6 6 6 6 5 9 12 11 10 12 12 13 13 11 2 5 1 4 8 9 8 12 22 19 13 10 12 11 11 11 9 8 10 6 9 2
9 9 8 8 9 9 9 9 10 10 10 10 10 11 11 11 12 11 11 11 10 9 9 9 8 8 10 10 10 10 10 9 10 12 9 2 1 5 10 7 6 5 6 12 14 14 15 12 6 6 1 4 6 3 4 9 13 14 11 10 15 24 23 17 15 12 13 9 10 11 11 11 11 6
9 9 8 8 7 8 9 10 10 11 11 11 11 10 9 9 11 14 13 12 9 7 6 6 7 8 8 10 10 10 11 11 6 3 5 7 10 11 11 7 5 6 7 14 17 16 13 5 3 2 1 0 1 2 7 11 14 15 13 9 7 14 22 21 21 20 16 10 10 9 7 3 2 5
10 10 10 10 9 8 8 8 9 9 10 10 10 11 11 11 8 6 5 6 4 5 6 8 9 8 8 8 8 7 4 1 2 6 7 9 10 8 3 4 6 8 10 13 15 14 13 9 3 3 2 3 6 7 9 15 14 14 14 12 10 6 9 18 22 20 16 17 22 20 16 13 8 8
8 10 10 10 10 10 10 9 8 8 8 8 9 10 10 10 9 9 8 6 5 6 6 7 7 6 7 5 3 3 3 6 6 6 5 5 5 5 6 5 5 8 11 13 14 13 9 6 3 6 6 9 6 6 11 15 15 13 12 13 10 7 10 8 10 15 14 14 16 19 22 23 23 23
8 9 9 10 10 10 10 10 10 9 9 8 8 9 10 10 9 9 8 8 7 5 7 7 5 3 3 3 5 7 6 5 5 5 7 7 6 5 6 7 7 9 12 12 11 12 10 8 5 6 7 8 8 10 13 12 12 11 12 12 14 13 10 6 7 10 13 15 17 21 20 22 24 24
Wind_Direction
256 271 222 205 261 292 23 6 23 39 73 61 72 84 111 141 105 340 344 292 316 323 9 141 289 242 237 231 223 241 225 215 209 188 201 204 204 215 213 206 215 215 199 188 199 210 216 219 224 226 225 226 245 289 314 326 336 342 354 358 5 7 8 5 357 359 355 355 355 354 351 351 351 350
239 242 272 227 220 263 305 280 309 147 94 55 42 60 128 129 129 162 348 287 260 282 329 63 278 292 276 262 265 243 231 221 219 225 189 202 213 212 212 209 214 217 203 190 196 205 211 218 225 228 226 227 225 249 281 309 323 335 355 358 6 8 11 6 1 1 356 354 354 354 352 353 351 351
251 253 240 223 223 241 258 304 308 326 141 218 55 2 88 129 137 138 142 8 289 100 8 305 332 311 269 274 289 229 200 214 212 234 205 203 218 212 212 211 215 217 205 199 199 206 213 219 226 224 221 222 227 235 253 279 299 321 354 2 7 8 12 7 2 3 358 354 354 353 350 349 349 348
240 238 251 200 204 240 190 188 303 242 228 191 207 250 60 192 148 126 129 190 267 286 268 277 294 296 303 297 105 5 266 227 229 266 267 254 225 215 227 218 220 219 209 205 203 206 215 220 225 225 224 223 227 232 235 251 269 295 349 10 9 8 13 8 4 5 356 351 351 351 348 346 349 347
230 226 219 234 223 187 47 311 334 59 216 220 198 208 169 275 245 162 179 226 281 298 247 254 301 314 343 328 320 325 345 296 237 250 263 261 209 215 220 220 221 221 213 212 210 210 215 221 224 228 229 228 232 235 237 243 257 269 316 12 353 13 15 5 3 7 358 350 348 349 346 344 347 346
242 206 219 223 219 194 201 249 301 284 246 227 230 229 232 239 247 207 168 213 221 272 313 323 316 317 351 337 313 4 318 305 286 271 268 267 216 210 225 211 223 218 219 217 215 215 217 222 223 226 231 231 232 238 242 240 249 262 248 258 260 79 21 355 358 2 355 350 349 348 347 344 346 348
244 239 200 220 203 177 199 229 243 267 283 262 234 251 239 229 236 222 195 182 229 249 271 259 310 307 328 311 288 307 297 298 309 296 287 271 275 232 212 213 221 212 215 217 218 218 220 225 223 223 229 230 231 235 237 238 244 250 239 225 236 154 50 347 351 351 353 349 350 352 347 347 348 350
218 231 228 225 199 191 193 224 224 234 246 263 230 233 244 228 242 245 213 207 203 217 244 293 239 267 309 300 302 304 306 309 305 292 276 291 291 297 261 222 230 213 208 216 218 219 223 226 225 224 225 227 229 231 233 234 239 246 237 214 216 213 189 281 357 341 348 347 353 355 340 339 338 336
206 213 217 220 203 194 212 226 221 224 229 240 252 239 230 230 239 240 215 216 198 192 223 261 258 244 263 256 287 298 302 300 296 296 282 271 280 285 278 268 223 209 204 215 218 220 225 228 228 225 222 222 225 227 229 228 232 237 237 221 215 216 214 245 292 329 332 344 358 351 330 324 324 331
205 211 213 212 206 205 206 224 218 214 217 223 231 246 252 234 225 231 211 191 205 215 236 234 283 284 252 306 278 281 279 282 285 282 282 299 285 289 307 291 252 137 176 191 224 232 239 237 234 229 222 221 222 226 224 226 230 233 234 225 217 218 229 233 260 272 280 344 356 348 320 319 325 329
212 212 211 212 207 208 209 214 220 213 216 214 221 231 235 241 232 232 241 229 212 201 223 247 231 264 260 227 283 284 269 259 246 256 281 286 275 274 252 277 286 227 215 234 231 228 222 225 226 230 226 221 222 223 222 224 227 229 230 219 216 221 225 232 233 244 254 315 352 317 303 316 329 335
214 212 213 209 211 211 211 210 214 210 212 208 223 222 219 235 243 249 237 239 242 255 254 244 258 241 261 270 244 274 305 304 310 265 231 254 273 275 259 238 255 267 208 237 241 238 246 254 238 235 227 226 225 223 223 225 224 227 228 218 215 220 226 227 234 236 232 241 274 289 300 320 325 333
222 226 226 224 219 211 212 208 207 209 204 204 213 224 215 224 232 241 243 231 215 222 223 259 262 268 269 260 268 277 268 254 258 271 242 250 256 256 269 275 256 243 254 260 240 248 216 231 231 219 221 227 220 226 220 227 223 222 224 220 214 215 222 228 232 235 230 229 242 274 300 319 314 329
221 224 227 227 222 220 218 214 213 212 211 209 208 210 206 212 214 219 223 231 233 234 241 243 239 254 255 253 237 236 239 248 274 285 274 264 267 284 267 277 270 243 231 269 281 270 219 208 244 211 232 231 201 216 207 223 214 213 217 220 211 211 217 227 230 236 229 231 242 262 298 312 317 321
224 226 224 227 235 232 223 222 217 215 217 217 216 212 207 202 200 207 213 221 217 217 227 232 231 238 253 251 237 239 252 253 254 254 263 256 264 260 261 271 299 290 212 267 252 284 231 184 226 234 235 234 199 205 218 219 211 205 207 214 207 207 213 223 232 232 224 229 240 256 280 310 323 318
220 224 226 228 227 234 233 219 219 221 220 218 220 221 217 211 206 199 195 205 212 214 222 229 229 230 239 251 240 249 247 257 266 263 229 220 218 241 238 232 230 252 196 222 278 276 274 198 236 252 234 230 222 211 218 211 204 197 204 208 203 202 207 219 229 232 221 224 226 237 242 299 317 320
217 216 223 232 238 242 235 232 227 220 231 232 229 226 226 225 220 220 217 205 204 194 209 217 230 222 232 241 242 225 224 205 249 269 275 263 243 224 243 245 260 274 223 250 266 270 272 191 246 259 259 230 227 237 220 205 193 192 201 203 199 199 204 215 225 231 222 219 220 211 199 235 275 312
221 220 217 220 227 229 240 241 218 206 216 223 235 245 246 243 241 233 228 229 229 220 216 213 228 236 211 233 234 231 225 230 238 235 254 260 273 269 257 247 247 259 194 221 234 280 280 261 262 264 271 259 251 234 214 191 186 188 196 195 193 195 203 211 219 225 221 218 210 205 193 192 200 331
222 222 223 222 224 226 225 226 229 209 207 211 218 223 230 235 237 235 234 226 222 224 228 227 233 240 236 240 242 239 225 228 230 220 230 229 238 256 271 288 260 273 231 203 198 266 271 266 245 261 263 253 230 284 208 186 184 186 190 191 191 194 203 211 216 222 221 210 207 210 190 167 166 104
225 223 222 222 227 228 227 229 227 227 209 202 210 217 224 229 230 232 230 229 227 224 222 226 233 238 239 239 241 240 238 242 245 252 280 315 277 280 284 275 277 267 252 196 213 254 268 250 239 262 262 199 232 229 216 201 187 186 188 188 189 194 202 210 214 220 218 210 206 204 182 182 172 143
225 225 221 222 225 226 227 228 225 230 223 214 212 214 219 222 224 231 231 227 227 231 233 232 233 237 239 242 242 243 242 238 244 258 279 266 261 265 271 272 272 266 266 231 203 222 261 256 228 260 245 199 214 210 214 197 201 190 187 186 191 195 204 210 213 219 219 206 209 208 189 185 193 188
233 232 228 221 222 228 235 228 222 223 215 220 221 217 220 225 229 233 225 225 223 225 230 233 237 240 244 247 252 253 252 247 236 216 240 247 247 250 246 261 261 281 284 256 170 198 236 262 238 250 268 210 227 208 196 185 186 188 195 198 195 200 207 210 214 220 221 210 206 215 194 190 191 210
242 244 245 242 237 232 234 235 230 227 212 218 218 218 218 229 233 233 214 217 225 220 223 244 247 259 256 251 247 247 245 242 235 220 233 243 233 244 247 250 269 284 273 258 151 218 261 253 249 208 296 277 269 138 172 177 179 186 189 197 210 217 215 216 218 223 231 222 215 220 204 179 174 182
247 249 250 253 256 253 253 251 247 241 226 227 232 224 225 234 243 240 227 219 222 228 219 223 217 228 235 237 235 238 243 241 224 224 227 229 228 234 243 244 234 242 258 266 153 204 260 213 262 203 223 249 270 247 113 189 192 192 185 185 206 215 213 222 233 235 241 244 235 233 215 179 188 166
246 246 243 246 244 242 243 243 244 244 239 235 244 239 236 235 243 252 241 239 236 240 239 239 233 227 226 230 228 228 232 231 226 221 223 226 222 223 232 238 240 248 249 255 173 202 252 235 258 262 260 217 234 215 248 190 196 199 200 196 201 199 189 211 212 225 240 249 257 251 243 222 216 193
247 244 244 244 243 239 239 240 242 244 244 238 233 246 249 259 266 261 249 247 252 251 250 248 245 235 221 222 225 230 229 226 226 226 223 222 223 222 225 224 230 240 247 252 220 210 238 259 246 254 252 242 269 217 209 255 213 207 196 206 208 201 189 193 199 218 218 221 235 233 227 226 223 188
256 253 250 246 244 237 235 237 242 247 252 254 243 246 254 263 276 292 283 279 263 254 250 251 254 250 244 242 237 226 232 231 227 228 228 227 221 224 226 227 227 231 242 250 229 202 208 239 235 226 242 233 253 267 224 237 244 157 190 212 212 204 191 189 201 209 206 208 223 231 225 238 226 194
268 269 268 326 355 339 332 324 308 285 255 236 244 249 256 262 271 271 272 264 257 258 256 253 254 253 248 248 246 240 223 229 228 233 234 231 228 225 226 228 231 234 240 243 238 209 207 230 242 232 228 233 236 242 253 251 176 173 204 208 209 209 191 197 207 207 203 204 209 210 195 226 220 188
260 270 284 292 294 298 307 307 302 291 266 260 267 263 260 263 255 243 239 247 250 254 253 252 253 255 251 246 249 247 236 239 244 255 263 263 264 253 245 236 231 233 236 240 238 228 221 226 237 241 235 223 229 236 226 244 201 208 198 155 204 210 200 200 203 202 198 194 204 199 203 201 203 196
279 283 282 283 285 281 272 264 258 263 262 263 257 255 250 244 244 237 241 245 243 246 249 250 253 255 256 250 248 244 238 241 246 247 258 263 269 269 272 282 266 249 242 240 237 234 227 227 232 235 237 233 225 239 233 243 248 225 186 201 207 149 205 194 202 204 194 196 203 204 207 200 203 184
263 263 260 255 253 250 258 256 254 256 263 268 264 255 243 245 242 242 233 239 245 248 246 245 245 248 248 253 253 244 236 241 245 234 242 247 253 258 264 269 273 269 250 242 240 236 232 229 228 222 232 238 234 231 237 223 242 234 218 209 169 200 196 193 201 204 201 199 199 205 200 205 217 211
281 284 284 272 263 255 253 248 241 237 228 234 251 255 250 244 238 240 244 248 249 250 248 246 245 246 242 244 245 248 247 249 252 239 237 240 251 248 255 260 260 263 265 251 245 238 231 231 229 226 225 228 233 236 228 215 228 233 238 211 206 219 164 191 197 204 197 183 187 205 204 204 208 210
312 297 280 276 276 268 262 258 251 249 242 247 243 253 253 250 244 235 226 236 241 241 242 245 244 247 242 245 241 243 250 251 256 255 259 255 253 256 237 250 259 263 266 264 253 249 237 235 228 229 228 230 230 232 224 235 234 229 233 226 201 214 209 206 194 190 165 176 204 200 209 213 212 205
289 279 283 279 281 279 273 264 254 245 232 234 242 248 258 254 252 245 240 238 245 241 238 241 243 246 246 248 244 242 246 251 245 236 235 258 256 261 253 257 260 257 262 265 262 254 248 246 242 244 246 245 242 231 222 229 241 232 229 229 207 220 218 197 202 182 177 190 189 196 212 218 215 209
274 288 278 276 272 272 271 266 261 251 245 237 233 248 257 264 259 252 247 245 240 240 240 241 241 240 236 242 241 245 248 252 254 249 237 247 252 254 262 263 269 270 269 272 267 257 239 248 239 251 255 261 264 257 225 222 237 241 233 228 221 230 221 198 190 190 192 196 183 201 212 218 219 212
270 260 269 275 276 274 273 269 270 267 265 258 241 229 228 240 245 254 258 252 244 241 239 239 239 239 241 245 247 245 250 247 250 244 247 241 249 253 253 257 265 271 268 269 271 256 233 240 223 235 245 245 247 260 253 212 215 233 233 237 224 231 227 190 196 182 183 199 200 198 204 215 219 206
266 267 267 269 271 272 273 275 276 275 273 278 284 280 265 256 243 235 240 249 263 266 263 262 250 240 239 241 245 241 236 227 243 232 234 234 236 244 252 253 249 253 263 264 265 260 228 237 223 228 239 246 247 254 258 123 220 224 224 237 238 222 214 179 173 193 205 199 201 202 212 213 219 209
259 259 265 268 269 268 265 268 270 268 264 259 259 259 258 258 259 257 256 250 251 251 252 251 253 251 251 237 229 230 221 217 223 230 226 218 221 227 228 234 232 228 238 257 253 253 251 260 261 261 284 268 263 255 265 227 179 240 219 221 235 225 191 170 189 204 211 209 209 212 213 218 222 212
249 252 259 269 270 269 269 267 263 263 261 256 250 247 248 250 251 252 247 245 241 239 240 241 243 240 243 246 247 245 232 220 224 228 224 218 212 223 237 248 259 259 261 271 265 246 226 219 223 214 204 222 239 254 282 305 283 271 232 215 220 223 194 195 210 212 209 208 220 226 233 258 15 173
267 255 260 265 267 268 267 269 266 260 259 251 249 244 242 245 244 243 243 241 240 238 240 243 245 239 231 232 234 235 240 237 232 227 213 211 209 216 249 260 269 286 303 274 277 267 257 253 240 228 224 221 256 42 94 216 250 260 251 225 214 212 214 194 210 207 219 215 200 197 218 208 231 210
347 340 332 324 318 317 311 302 293 284 272 263 255 248 241 243 244 243 240 237 234 233 233 234 230 225 225 220 217 214 219 221 221 226 237 219 111 202 224 219 226 223 242 266 260 261 253 244 293 333 87 157 186 88 1 294 272 269 251 236 222 222 220 200 205 203 216 198 186 199 201 203 213 197
337 334 328 333 337 336 337 337 335 337 335 335 332 322 296 256 245 244 240 239 237 234 234 234 227 224 221 214 217 216 221 230 253 29 99 176 205 211 207 192 224 236 227 252 258 256 263 261 282 80 164 189 88 166 246 256 262 267 267 257 239 225 227 226 217 209 205 179 180 191 202 218 125 211
340 332 329 329 331 327 328 324 328 332 331 332 333 333 333 331 331 310 286 264 253 228 224 231 235 236 232 222 222 225 246 265 184 191 203 204 212 221 226 219 228 243 243 252 259 261 264 267 263 192 132 160 206 167 224 249 249 253 261 260 250 224 229 228 232 236 235 212 194 192 188 184 160 211
341 335 329 328 327 326 325 323 324 329 326 329 328 327 327 329 325 324 319 310 278 263 254 240 237 220 213 211 217 213 205 220 230 237 245 251 223 219 235 244 232 242 245 249 258 263 271 275 220 164 178 221 217 181 221 240 250 250 256 260 260 240 233 220 221 232 243 264 250 223 205 198 201 208
342 335 329 328 328 325 325 328 329 328 329 327 327 326 322 320 319 322 329 328 333 356 351 343 330 353 359 299 248 247 240 230 230 230 235 241 254 254 242 236 230 233 242 244 253 265 256 247 225 182 201 219 219 216 228 236 248 261 259 261 266 256 248 218 205 214 225 236 229 221 226 221 221 226